Sugar Land, TX

9:36 PM CST on February 23, 2017 (GMT -0600)
Sugar Land Municipal-Hull

Weather History for KSGR - January, 2014

Change the Weather History Date:

Wednesday, January 8, 2014

  Actual Average Record
Temperature  
Mean Temperature 52 °F -  
Max Temperature 57 °F 57 °F 79 °F (1965)
Min Temperature 46 °F 40 °F 18 °F (1976)
Degree Days  
Heating Degree Days 14    
Growing Degree Days 2 (Base 50)    
Moisture  
Dew Point 50 °F    
Average Humidity 86    
Maximum Humidity 94    
Minimum Humidity 66    
Precipitation  
Precipitation 0.01 in - - ()
Sea Level Pressure  
Sea Level Pressure 30.24 in    
Wind  
Wind Speed 12 mph (SE)    
Max Wind Speed 18 mph    
Max Gust Speed 25 mph    
Visibility 7 miles    
Events Rain    
Averages and records for this station are not official NWS values.
T = Trace of Precipitation, MM = Missing Value Source: NWS Daily Summary

Daily Weather History Graph

Daily Weather History Graph

Search for Another Location

Airport or City:

Trip Planner

Search our weather history database for the weather conditions in past years. The results will help you decide how hot, cold, wet, or windy it might be!

Date:

Astronomy

Jan. 08, 2014 Rise Set
Actual Time 7:18 AM CST 5:40 PM CST
Civil Twilight 6:52 AM CST 6:06 PM CST
Nautical Twilight 6:23 AM CST 6:35 PM CST
Astronomical Twilight 5:54 AM CST 7:04 PM CST
Moon 12:19 PM CST (1/8) 12:41 AM CST (1/8)
Length of Visible Light 11h 13m
Length of Day
10h 21m
First Quarter, 56% of the Moon is Illuminated
Jan 8
First Quarter
Jan 15
Full
Jan 23
Last Quarter
Jan 30
New
Feb 6
First Quarter

Hourly Weather History & Observations

Time (CST) Temp. Windchill Dew Point Humidity Pressure Visibility Wind Dir Wind Speed Gust Speed Precip Events Conditions
12:53 AM 46.0 °F 41.9 °F 36.0 °F 68% 30.37 in 10.0 mi ESE 8.1 mph - N/A   Overcast
1:53 AM 46.9 °F - 37.0 °F 68% 30.35 in 10.0 mi ESE 12.7 mph - N/A   Overcast
2:24 AM 48.2 °F - 37.4 °F 66% 30.34 in 10.0 mi SE 10.4 mph - N/A   Overcast
2:53 AM 48.0 °F - 37.9 °F 68% 30.34 in 10.0 mi SE 11.5 mph - N/A   Overcast
3:53 AM 48.9 °F - 39.9 °F 71% 30.32 in 10.0 mi SE 11.5 mph - N/A   Overcast
4:53 AM 50.0 °F - 43.0 °F 77% 30.30 in 10.0 mi SE 13.8 mph 20.7 mph N/A   Overcast
5:53 AM 50.0 °F - 45.0 °F 83% 30.27 in 10.0 mi SE 12.7 mph 19.6 mph N/A   Overcast
6:53 AM 52.0 °F - 45.0 °F 77% 30.27 in 10.0 mi ESE 10.4 mph - N/A   Overcast
7:53 AM 53.1 °F - 45.0 °F 74% 30.29 in 10.0 mi ESE 10.4 mph - N/A   Overcast
8:53 AM 54.0 °F - 46.0 °F 75% 30.30 in 10.0 mi SE 17.3 mph 23.0 mph N/A   Overcast
9:53 AM 55.9 °F - 46.0 °F 69% 30.31 in 10.0 mi SE 13.8 mph - N/A   Overcast
10:53 AM 54.0 °F - 50.0 °F 86% 30.31 in 6.0 mi SE 13.8 mph 21.9 mph 0.00 in Rain Light Rain
11:22 AM 53.6 °F - 51.8 °F 94% 30.28 in 10.0 mi SE 13.8 mph 18.4 mph 0.00 in   Overcast
11:53 AM 54.0 °F - 51.1 °F 90% 30.27 in 3.0 mi SE 12.7 mph 20.7 mph 0.00 in Rain Light Rain
12:01 PM 53.6 °F - 51.8 °F 94% 30.26 in 2.5 mi SE 15.0 mph - 0.00 in Rain Light Rain
12:03 PM 53.6 °F - 51.8 °F 94% 30.26 in 3.0 mi ESE 10.4 mph 19.6 mph 0.00 in Rain Light Rain
12:53 PM 55.0 °F - 52.0 °F 89% 30.23 in 5.0 mi SE 16.1 mph 23.0 mph 0.00 in   Overcast
1:02 PM 55.4 °F - 51.8 °F 88% 30.22 in 4.0 mi SE 13.8 mph - 0.00 in Rain Light Rain
1:21 PM 55.4 °F - 51.8 °F 88% 30.20 in 2.5 mi SE 16.1 mph 25.3 mph 0.00 in Rain Light Rain
1:29 PM 55.4 °F - 51.8 °F 88% 30.20 in 3.0 mi SE 18.4 mph 24.2 mph 0.00 in   Overcast
1:45 PM 55.4 °F - 51.8 °F 88% 30.20 in 2.5 mi SE 17.3 mph 24.2 mph 0.00 in Rain Light Rain
1:53 PM 55.0 °F - 52.0 °F 89% 30.21 in 2.5 mi SE 17.3 mph 23.0 mph 0.00 in Rain Light Rain
2:01 PM 55.4 °F - 51.8 °F 88% 30.20 in 4.0 mi SE 13.8 mph 25.3 mph 0.00 in Rain Light Rain
2:40 PM 55.4 °F - 51.8 °F 88% 30.20 in 2.5 mi SE 12.7 mph - 0.00 in Rain Light Rain
2:53 PM 55.0 °F - 53.1 °F 93% 30.21 in 2.5 mi ESE 11.5 mph - 0.00 in Rain Light Rain
3:45 PM 55.4 °F - 53.6 °F 94% 30.19 in 3.0 mi SE 12.7 mph - 0.01 in Rain Light Rain
3:53 PM 55.0 °F - 53.1 °F 93% 30.19 in 3.0 mi SE 11.5 mph - 0.01 in   Overcast
4:04 PM 55.4 °F - 53.6 °F 94% 30.18 in 2.5 mi SE 12.7 mph - N/A   Overcast
4:26 PM 55.4 °F - 53.6 °F 94% 30.16 in 3.0 mi SE 17.3 mph 24.2 mph 0.00 in Rain Light Rain
4:39 PM 55.4 °F - 53.6 °F 94% 30.17 in 2.5 mi ESE 15.0 mph 20.7 mph 0.00 in Rain Light Rain
4:48 PM 55.4 °F - 53.6 °F 94% 30.17 in 5.0 mi SE 13.8 mph - 0.00 in   Overcast
4:53 PM 55.0 °F - 53.1 °F 93% 30.18 in 7.0 mi SE 15.0 mph 23.0 mph 0.00 in   Overcast
5:15 PM 55.4 °F - 51.8 °F 88% 30.18 in 8.0 mi SE 12.7 mph - N/A   Overcast
5:35 PM 55.4 °F - 51.8 °F 88% 30.18 in 10.0 mi SE 11.5 mph - N/A   Overcast
5:53 PM 55.9 °F - 52.0 °F 87% 30.19 in 10.0 mi SE 10.4 mph 18.4 mph N/A   Overcast
6:53 PM 55.9 °F - 53.1 °F 90% 30.19 in 6.0 mi SE 12.7 mph - 0.00 in Rain Light Rain
7:53 PM 55.9 °F - 53.1 °F 90% 30.21 in 10.0 mi ESE 8.1 mph - 0.00 in   Overcast
8:53 PM 57.0 °F - 54.0 °F 89% 30.21 in 10.0 mi ESE 13.8 mph 19.6 mph N/A   Overcast
9:53 PM 57.0 °F - 54.0 °F 89% 30.21 in 9.0 mi ESE 11.5 mph - N/A   Overcast
10:53 PM 55.9 °F - 53.1 °F 90% 30.20 in 8.0 mi East 6.9 mph - N/A   Overcast
11:53 PM 55.0 °F - 53.1 °F 93% 30.19 in 9.0 mi ESE 5.8 mph - 0.00 in   Overcast